Погода в Солдатском

Россия / Воронежская область     51°02′41″N   38°58′53″E
темп.,
°C
ветер,
м/с
пор.,
м/с
влажн.,
%
обл.,
%
осадки,
мм/ч
давл.,
гПа
погр.,
м
15 апреля, чт
чт1500:00+13юв3960100 0.0 1014233
03:00+11юв2269100 0.0 101437
06:00+10ю367699 0.0 1014142
09:00+13юз457394 0.0 1015543
12:00+16ююз455151 0.0 10151456
15:00+18ююз463914 0.0 10142215
18:00+16юз3551100 0.0 1014387
21:00+13ююв226160 0.0 101438
16 апреля, пт
пт1600:00+11ююз357166 0.0 1014110
03:00+10ю257895 0.0 1015129
06:00+9ююз228567 0.0 101623
09:00+12ю33630 0.0 1016640
12:00+16ююв46475 0.0 10161925
15:00+17ю553583 0.0 10162601
18:00+14з3551100 0.0 1016385
21:00+12з3563100 0.0 1017180
17 апреля, сб
сб1700:00+11зюз2265100 0.0 101835
03:00+10юв2478100 0.5 1018144
06:00+9в2483100 0.4 1019235
09:00+10ю2272100 0.6 1019482
12:00+12зсз2363100 0.7 1019918
15:00+11сз3372100 2.5 1019522
18:00+9юз4782100 1.8 1019607
21:00+8юз4790100 5.8 1020485
18 апреля, вс
вс1800:00+8зюз5791100 6.7 1020452
03:00+8юз2591100 7.0 1020296
06:00+8ю2392100 0.3 1020233
09:00+8ююв3382100 0.3 1021416
12:00+11всв337099 0.0 10221044
15:00+12св777099 0.1 10221000
18:00+9в587784 0.1 1024575
21:00+7с22855 0.1 102427
19 апреля, пн
пн1900:00+6ссв36885 0.0 1024133
03:00+5св11924 0.0 102613
06:00+4ссв35921 0.0 1027103
09:00+9всв69670 0.0 1027662
12:00+12в685452 0.0 10281664
15:00+12в6753100 0.0 10271784
18:00+11в685614 0.0 1028971
21:00+7в5115683 0.0 1029366